Flag for Austria Weather past 2 weeks in Linz, Upper Austria, Austria

Now
48 °F

Partly sunny.


Feels Like: 43 °F
Forecast: 37 / 53 °F
Wind: 14 mph from West

Location: Linz / Hoersching-Flughafen

Current Time: Mar 28, 2015 at 3:54:17 PM

Latest Report: Mar 28, 2015 at 2:50 PM


Visibility: N/A

Pressure: 30.09 "Hg

Humidity: 54%

Dew point: 32 °F

Location of LinzLocation

Historic Weather in Linz — Graph

°F

Linz temperature yesterday

Maximum temperature yesterday: 48 °F (at 2:20 PM)
Minimum temperature yesterday: 41 °F (at 3:20 AM)
Average temperature yesterday: 44 °F

Past Weeks' High & Low Weather Summary

 TemperatureHumidityPressure
High61 °F (Mar 16, 1:50 PM)100% (Mar 24, 2:20 AM)30.33 "Hg (Mar 24, 2:20 AM)
Low28 °F (Mar 21, 4:50 AM)21% (Mar 19, 2:50 PM)29.59 "Hg (Mar 25, 2:50 PM)
Average44 °F66%30.08 "Hg
* Reported Mar 13 2:20 PM — Mar 28 2:20 PM, Linz, Weather by CustomWeather, © 2015

Note: Actual official high and low records may vary slightly from our data, if they occured in-between our weather recording intervals... More about our weather records

Advertising

Linz weather history for previous 24 hours

 ConditionsComfort  
Time TempWeatherWind HumidityBarometerVisibility
2:20 PM
Sat, Mar 28
48 °FPartly sunny.14 mph54%30.09 "HgN/A
1:50 PM48 °FBroken clouds.14 mph54%30.12 "HgN/A
1:20 PM48 °FPartly sunny.15 mph50%30.12 "HgN/A
12:50 PM48 °FPartly sunny.14 mph50%30.12 "HgN/A
12:20 PM48 °FPartly sunny.15 mph46%30.15 "HgN/A
11:50 AM48 °FBroken clouds.14 mph46%30.15 "HgN/A
11:20 AM46 °FBroken clouds.13 mph53%30.15 "HgN/A
10:50 AM48 °FPartly sunny.10 mph58%30.18 "HgN/A
10:20 AM46 °FPartly sunny.12 mph62%30.18 "HgN/A
9:50 AM46 °FPartly sunny.13 mph62%30.18 "HgN/A
9:20 AM45 °FPartly sunny.13 mph66%30.18 "HgN/A
8:50 AM45 °FPartly sunny.13 mph66%30.21 "HgN/A
8:20 AM43 °FPartly sunny.12 mph71%30.18 "HgN/A
7:50 AM43 °FPartly sunny.10 mph71%30.21 "HgN/A
7:20 AM43 °FPartly sunny.10 mph71%30.21 "HgN/A
6:50 AM41 °FPartly sunny.8 mph76%30.21 "HgN/A
6:20 AM39 °FPartly sunny.7 mph81%30.18 "HgN/A
5:50 AM39 °FPartly sunny.7 mph81%30.18 "HgN/A
5:20 AM41 °FPassing clouds.8 mph76%30.18 "HgN/A
4:50 AM41 °FOvercast.9 mph76%30.18 "HgN/A
4:20 AM41 °FOvercast.10 mph76%30.18 "HgN/A
3:50 AM41 °FPassing clouds.15 mph76%30.18 "HgN/A
3:20 AM41 °FOvercast.16 mph76%30.18 "HgN/A
2:50 AM41 °FOvercast.16 mph76%30.18 "HgN/A
2:20 AM43 °FPassing clouds.16 mph71%30.18 "HgN/A
1:50 AM41 °FPassing clouds.17 mph76%30.18 "HgN/A
1:20 AM43 °FOvercast.16 mph71%30.18 "HgN/A
12:50 AM43 °FOvercast.17 mph71%30.18 "HgN/A
12:20 AM43 °FPassing clouds.16 mph71%30.18 "HgN/A
11:50 PM
Fri, Mar 27
43 °FOvercast.18 mph71%30.18 "HgN/A
11:20 PM43 °FPassing clouds.16 mph71%30.18 "HgN/A
10:50 PM43 °FOvercast.16 mph71%30.18 "HgN/A
10:20 PM45 °FPassing clouds.18 mph66%30.15 "HgN/A
9:50 PM45 °FPartly cloudy.15 mph66%30.15 "HgN/A
9:20 PM45 °FPartly cloudy.20 mph66%30.15 "HgN/A
8:50 PM45 °FPassing clouds.14 mph66%30.15 "HgN/A
8:20 PM45 °FPassing clouds.10 mph71%30.12 "HgN/A
7:50 PM45 °FPassing clouds.15 mph66%30.12 "HgN/A
7:20 PM45 °FPassing clouds.16 mph66%30.09 "HgN/A
6:50 PM46 °FPassing clouds.21 mph57%30.09 "HgN/A
6:20 PM46 °FPartly sunny.18 mph62%30.07 "HgN/A
5:50 PM46 °FBroken clouds.16 mph62%30.07 "HgN/A
5:20 PM46 °FPartly sunny.17 mph66%30.07 "HgN/A
4:50 PM46 °FPartly sunny.17 mph62%30.04 "HgN/A
4:20 PM48 °FPartly sunny.16 mph58%30.04 "HgN/A
3:50 PM48 °FPartly sunny.18 mph62%30.01 "HgN/A
3:20 PM48 °FBroken clouds.20 mph62%30.01 "HgN/A
Weather by CustomWeather, © 2015

See weather overviewHow to use our weather pages